Lapse_Rate
6.2 6.5 6.5 6.5 6.5 6.5 6.5 6.5 6.5 6.5 6.5 6.5 6.5 6.5 6.5 5.1 4.4 5.1 3.5 4.6 4.9 5.0 4.8 5.2 5.0 4.7 5.1 3.1 2.9 2.4 2.2 2.0 2.3 2.3 2.0 2.5 2.4 2.5 3.0 5.0 5.6 5.5 5.6 6.3
6.5 6.5 6.5 6.5 6.5 6.5 6.5 6.5 6.5 6.5 6.5 6.5 6.5 6.5 6.5 6.3 6.0 4.4 4.0 4.1 4.1 4.3 4.6 5.3 4.9 4.4 4.4 2.4 2.2 2.4 2.5 2.6 2.8 3.4 3.5 3.7 3.3 3.7 4.2 5.5 5.8 6.1 6.6 6.1
6.5 6.5 6.5 6.5 6.5 6.5 6.5 6.5 6.5 6.5 6.5 6.5 6.5 6.5 6.5 6.5 5.5 4.3 5.0 4.7 5.0 4.6 4.8 5.1 5.4 2.2 2.0 1.9 2.4 2.5 3.0 3.4 4.0 4.3 5.1 4.3 4.5 4.3 4.6 4.1 3.5 5.3 6.3 6.6
6.5 6.3 6.5 6.5 6.5 6.5 6.5 6.5 6.5 6.5 6.5 6.5 6.5 6.5 6.5 6.5 6.5 6.5 6.3 5.5 3.9 5.5 5.9 5.9 4.1 3.1 3.2 3.0 3.4 4.3 4.1 4.1 4.5 5.1 4.9 4.7 4.3 4.8 4.0 3.4 3.7 5.0 6.9 6.3
6.5 6.5 6.5 6.5 6.5 6.5 6.5 6.5 6.5 6.5 6.5 6.5 6.5 6.5 6.5 6.5 6.5 6.5 5.3 3.9 4.0 4.9 5.1 5.0 4.3 4.1 3.4 3.5 3.1 4.2 4.4 4.8 5.5 6.0 4.5 4.5 4.1 4.3 4.7 5.5 5.6 5.9 6.4 6.9
6.5 5.9 6.4 6.5 6.5 6.5 6.5 6.5 6.5 6.5 6.5 6.5 6.5 6.5 6.5 6.5 6.5 6.5 5.6 4.3 4.0 4.4 5.0 4.8 4.3 4.2 3.8 4.0 4.2 4.3 4.6 5.6 4.7 4.2 3.9 3.4 3.4 3.3 3.4 4.3 5.2 4.9 5.0 4.6
6.5 6.5 6.5 6.2 6.5 6.5 6.5 6.5 6.5 6.5 6.5 6.5 6.5 6.5 6.5 6.5 6.5 6.5 6.3 4.1 3.6 3.3 3.8 4.4 4.7 4.6 4.1 4.3 4.1 4.3 4.7 4.4 4.1 3.7 3.2 2.6 2.9 3.5 3.9 4.1 4.3 4.4 4.1 4.3
6.5 6.5 6.5 6.5 6.5 6.5 6.5 6.5 6.5 6.5 6.5 6.5 6.5 6.5 6.5 6.5 5.6 5.8 6.1 3.7 3.8 3.7 4.3 4.4 5.0 4.8 4.6 4.6 4.5 4.5 4.4 4.4 4.1 3.4 3.0 2.9 3.0 2.8 4.0 4.6 4.3 4.7 4.6 4.5
6.5 6.5 6.5 6.5 6.5 6.5 6.5 6.5 6.5 6.5 6.5 6.5 6.5 6.5 6.5 6.5 6.5 6.2 5.8 4.6 3.9 4.2 3.9 4.7 4.7 4.7 4.1 4.2 4.8 4.4 4.6 4.6 4.0 3.2 3.0 2.9 3.3 4.3 5.2 5.4 5.1 5.2 5.0 5.9
6.5 6.5 6.5 6.5 6.3 6.3 6.5 6.5 6.5 6.5 6.5 6.5 6.5 6.5 6.5 6.5 6.5 6.5 6.2 4.5 4.0 4.2 4.1 4.7 4.8 4.5 4.6 4.4 4.4 4.5 5.5 5.0 3.8 3.0 2.8 3.7 4.5 5.7 5.9 5.2 5.1 5.5 5.1 5.6
6.5 6.5 6.5 6.5 6.5 6.5 6.5 6.5 6.5 6.5 6.5 6.5 6.5 6.5 6.5 6.5 6.5 6.5 5.7 4.6 4.0 4.1 4.3 3.8 4.2 5.0 5.3 5.7 5.8 3.8 3.9 4.1 3.2 2.6 3.4 4.4 5.6 6.0 6.7 6.7 5.9 5.3 5.4 5.5
6.5 6.5 6.5 6.5 6.5 6.5 6.5 6.5 6.5 6.5 6.5 6.5 6.5 6.5 6.5 6.5 6.3 4.6 4.9 4.9 4.2 4.4 4.4 3.7 3.9 5.4 5.8 5.7 5.3 4.0 3.8 2.8 1.9 3.8 4.9 5.5 5.7 6.6 7.3 7.0 5.9 5.3 5.5 6.1
6.5 6.5 6.5 6.5 6.5 6.5 6.5 6.5 6.5 6.5 6.5 6.5 6.5 6.5 6.5 6.1 6.1 4.5 3.9 3.9 4.4 4.1 4.0 3.7 4.0 4.4 4.7 4.9 4.8 4.0 3.5 3.5 4.3 5.2 5.4 5.9 6.3 6.7 6.0 4.9 5.1 5.5 5.8 5.9
4.7 6.5 6.5 6.5 6.5 6.5 6.5 6.5 6.5 6.5 6.5 6.5 6.5 6.5 6.5 6.5 6.5 5.7 5.1 3.8 3.0 4.5 4.9 4.7 5.0 5.1 5.2 5.3 3.9 3.7 2.9 3.6 4.9 5.9 6.2 6.6 6.0 6.4 5.2 5.3 5.7 5.8 6.3 6.7
6.5 6.5 6.5 6.5 6.5 6.5 6.5 6.5 6.5 6.5 6.5 6.5 6.5 6.5 6.5 6.5 6.5 4.5 3.4 4.8 4.0 4.0 3.5 4.4 4.6 4.3 3.9 3.5 3.5 3.8 3.5 4.3 5.8 6.7 6.4 5.0 5.0 4.8 5.1 5.1 5.4 6.2 6.3 6.7
6.5 6.5 6.5 6.5 6.5 6.5 6.5 6.5 6.5 6.5 6.5 6.5 6.5 6.5 6.5 5.4 4.0 4.4 4.7 5.4 4.4 4.2 4.4 4.2 4.1 4.5 4.1 3.8 3.8 4.3 4.3 5.3 5.5 5.3 5.6 5.7 5.6 5.4 5.4 5.7 5.5 5.6 6.2 6.7
6.5 6.5 6.5 6.5 6.5 6.5 6.5 6.5 6.5 6.5 6.5 6.5 6.5 6.5 6.5 6.5 6.2 5.1 4.3 4.6 4.7 4.2 4.3 4.4 4.5 4.4 4.3 4.4 4.5 4.4 4.9 4.9 4.8 5.9 6.0 6.0 6.5 6.1 6.3 6.3 5.8 6.7 6.7 6.0
6.5 6.5 6.5 6.5 6.5 6.5 6.5 6.5 6.5 6.5 6.5 6.5 6.5 6.5 6.2 5.8 4.9 4.2 4.2 4.2 4.3 4.3 4.1 3.3 3.2 3.0 3.6 3.9 4.0 4.6 5.2 5.2 6.1 6.2 6.9 7.5 7.8 8.0 6.4 6.8 6.9 6.9 6.3 5.8
6.6 6.5 6.5 6.5 6.5 6.5 6.5 6.5 6.5 6.5 6.5 6.5 6.5 6.5 5.5 5.0 3.7 5.1 4.4 3.9 3.9 3.3 2.9 2.5 2.8 3.1 3.5 4.2 4.5 5.1 5.6 6.6 6.4 7.1 7.6 8.0 7.8 6.6 6.9 6.5 6.7 6.6 6.2 5.8
6.5 6.5 6.5 6.5 6.5 6.5 6.5 6.5 6.0 6.4 6.5 6.2 5.6 6.3 6.0 4.7 6.5 6.5 4.9 4.2 3.8 3.4 3.3 3.4 3.2 3.5 3.4 3.9 4.5 4.8 5.0 5.8 6.9 8.1 7.4 7.5 6.8 6.1 7.1 7.0 6.7 6.7 6.2 6.5
6.5 6.5 6.5 6.5 6.5 6.5 6.5 6.2 6.2 6.5 6.5 5.7 5.0 4.6 4.1 6.4 4.9 5.2 3.3 2.5 2.9 3.4 3.5 3.7 3.2 3.0 3.8 4.6 5.1 6.1 6.7 6.6 7.1 7.5 7.3 7.5 7.1 7.0 6.9 5.2 5.6 5.6 5.6 5.2
6.5 6.5 6.5 6.5 6.5 6.5 5.8 6.4 6.5 6.0 5.5 4.6 4.7 4.7 4.1 4.5 5.0 4.2 3.7 4.0 4.2 4.6 4.0 3.5 3.3 4.2 5.0 5.5 6.5 6.3 6.1 7.2 7.6 7.6 7.3 7.2 6.9 7.4 7.3 6.0 5.1 4.6 4.0 4.4
6.5 6.5 6.5 6.5 6.5 5.6 4.6 4.8 4.8 4.4 4.7 4.9 4.6 4.8 5.0 5.0 5.3 3.5 4.4 4.9 4.3 3.4 3.7 4.2 4.2 5.6 6.3 6.6 6.4 6.7 6.7 6.9 7.0 7.0 6.8 6.8 7.1 7.1 6.8 5.9 4.5 3.2 3.2 2.9
6.5 5.8 6.5 6.5 6.5 6.2 5.3 5.1 4.6 4.3 4.9 4.7 4.8 5.4 6.0 6.2 4.1 4.8 5.3 3.6 3.4 3.9 4.2 5.2 5.5 5.9 6.5 7.6 7.8 7.2 6.5 7.0 7.3 6.8 6.4 6.1 6.0 5.9 5.7 4.9 4.6 3.8 2.3 3.2
6.0 6.1 6.5 6.5 6.4 6.2 5.8 5.2 5.4 5.4 5.4 4.6 4.2 4.5 4.8 4.5 5.4 3.6 3.5 3.6 4.4 4.7 5.3 6.1 6.2 6.6 6.9 6.6 6.5 6.5 6.6 6.6 6.9 6.5 6.2 5.6 4.9 4.3 3.8 4.2 3.9 4.1 4.5 5.8
5.6 6.5 6.5 6.5 6.1 5.7 5.8 6.1 5.0 4.9 5.4 4.8 3.5 2.9 3.2 2.3 3.3 4.0 4.8 5.2 5.5 5.6 6.4 6.7 6.9 6.8 6.7 6.6 6.6 6.9 7.1 7.1 6.5 5.8 4.9 3.5 2.9 2.7 3.0 3.2 4.1 4.5 4.8 4.7
Wind_Speed
3 4 3 6 8 8 9 8 11 10 11 9 9 10 13 8 9 6 4 8 8 10 8 9 7 11 12 15 15 14 14 9 7 3 3 2 3 3 2 8 10 10 10 9
5 1 4 12 11 13 12 6 24 16 6 6 8 8 10 11 10 11 10 6 10 9 8 8 8 8 14 14 13 13 12 10 7 5 3 3 4 3 4 9 12 13 11 13
7 7 4 6 12 15 5 4 2 5 6 2 3 3 6 6 9 7 13 10 11 15 11 8 7 11 13 13 12 12 12 12 9 8 4 3 4 4 3 3 3 7 12 11
5 7 9 8 10 9 1 5 5 6 4 2 4 3 3 6 6 14 14 13 11 12 12 10 12 12 11 10 9 12 12 11 8 7 7 8 4 5 4 3 4 6 10 10
10 3 4 7 7 1 6 8 5 4 6 3 3 6 6 5 3 7 8 10 12 15 15 13 13 13 11 12 9 10 10 8 7 9 9 7 4 4 5 6 6 4 4 7
9 3 6 7 9 7 6 4 2 5 2 2 9 5 5 8 12 5 7 8 10 11 12 14 11 10 8 7 7 7 7 7 8 8 7 8 8 7 6 4 4 3 2 5
4 6 4 4 5 2 6 3 3 5 6 4 5 4 8 4 13 14 12 9 10 10 11 12 12 8 8 8 8 8 10 8 8 9 9 9 9 8 7 5 4 4 2 3
6 2 3 2 5 5 3 3 4 4 2 5 4 5 4 7 8 16 14 9 11 11 11 11 13 11 9 8 7 8 9 8 8 9 8 7 8 5 4 5 4 3 3 3
3 4 5 7 6 2 1 4 6 2 2 3 4 3 6 6 3 10 9 10 10 11 10 13 12 12 10 8 7 7 8 7 8 9 7 7 6 6 5 6 6 3 2 3
1 3 4 8 6 7 7 12 3 3 1 3 4 3 4 6 6 9 8 9 9 9 9 12 12 13 12 11 8 7 6 11 11 8 7 6 6 4 3 5 4 4 3 4
6 5 4 4 5 13 1 3 3 4 5 5 1 5 5 10 9 9 10 12 11 12 11 10 10 14 14 14 13 9 12 13 10 8 6 6 4 3 2 3 3 4 4 4
8 4 3 13 23 10 6 5 5 5 5 3 5 5 2 8 9 10 10 14 14 15 13 9 10 13 13 12 11 12 11 11 8 7 6 4 4 3 4 1 3 4 3 3
2 2 2 2 2 3 3 6 4 3 4 4 5 5 2 6 7 8 9 9 12 13 12 10 11 12 13 12 11 11 11 9 6 3 5 3 1 2 5 5 4 3 2 1
7 0 5 6 6 3 4 4 6 3 4 4 5 4 9 7 7 6 6 7 10 13 14 10 13 13 13 11 12 13 9 6 5 5 3 3 6 5 4 4 3 3 1 2
4 4 1 4 6 4 5 0 5 4 6 6 8 7 10 5 11 9 8 6 7 7 10 14 13 11 10 12 11 10 8 7 5 5 6 7 6 5 4 5 4 5 5 5
1 2 3 1 5 8 4 5 6 6 6 4 3 5 4 4 8 8 7 2 7 9 11 12 13 12 14 14 12 10 8 6 7 7 6 6 6 5 4 3 4 5 6 5
6 4 3 2 4 6 6 6 6 6 5 4 4 7 5 5 7 6 6 7 6 8 8 11 12 13 14 13 12 11 10 9 8 7 7 6 5 5 4 5 5 5 5 5
6 5 3 3 3 1 8 5 5 4 1 5 6 6 8 6 5 7 7 7 8 8 8 9 10 11 10 11 12 12 10 8 7 7 6 4 2 3 4 5 6 4 2 3
4 5 2 4 4 5 9 1 2 3 3 5 7 7 7 6 9 11 7 8 7 9 9 10 12 14 13 13 10 11 8 9 7 6 5 3 2 3 5 5 6 4 2 3
6 6 5 3 4 6 6 3 4 3 1 5 8 6 6 6 5 3 4 9 11 12 13 14 15 15 14 10 11 12 9 7 5 3 2 3 3 6 5 5 5 4 4 5
3 3 5 2 2 7 7 5 1 6 6 4 7 6 7 5 3 2 14 16 16 15 16 17 16 14 12 11 11 8 7 7 4 2 4 3 4 4 2 3 3 5 6 5
7 6 3 3 2 6 6 4 6 5 3 7 7 6 9 7 6 12 14 15 16 15 16 16 14 12 9 7 9 7 3 4 2 2 4 5 5 4 1 2 3 4 6 3
3 7 6 7 6 6 4 8 5 7 7 5 6 6 7 7 9 14 13 14 14 14 13 12 11 10 8 6 4 4 1 4 4 3 5 5 5 4 4 3 1 2 4 3
2 5 4 4 3 6 10 9 10 9 8 8 7 6 4 5 15 14 13 12 12 10 9 8 7 6 4 1 2 3 4 5 5 5 5 5 5 5 4 2 3 3 3 3
5 5 6 2 8 12 9 7 7 9 10 15 15 13 12 18 14 15 12 12 9 8 5 5 5 3 3 2 3 4 6 6 5 6 5 4 3 4 4 5 5 4 5 6
2 5 4 4 3 6 5 4 11 14 14 13 16 17 15 17 15 14 10 8 7 6 4 1 2 2 4 5 5 5 5 5 5 5 5 5 4 4 4 5 6 11 13 12
Wind_Direction
251 81 67 248 251 252 273 248 237 263 200 153 195 156 176 157 105 84 347 142 149 138 142 133 124 133 133 129 131 136 131 135 131 128 134 136 151 160 160 161 148 134 108 93
356 284 239 277 275 278 294 246 256 235 204 163 191 190 173 143 148 167 208 237 172 137 129 126 125 97 137 136 135 136 138 150 159 162 177 149 144 166 160 162 134 115 101 86
266 240 310 287 284 303 273 18 335 56 340 202 87 82 358 177 175 199 193 204 175 153 150 142 126 110 124 134 140 140 155 172 186 188 161 112 110 91 107 126 125 122 116 109
230 271 265 292 297 260 20 299 337 28 56 235 73 226 331 283 177 187 202 177 160 155 148 146 120 123 132 143 157 161 178 184 189 196 150 146 155 157 183 156 143 141 140 137
224 216 221 263 254 328 212 230 213 202 266 42 271 110 264 228 241 218 196 181 171 167 164 148 149 152 154 164 168 167 181 174 186 175 145 148 148 139 117 127 135 150 169 175
199 151 149 213 267 244 133 223 47 83 76 181 243 114 252 205 209 207 181 175 157 149 136 146 148 147 158 160 159 180 162 145 120 105 98 119 117 109 101 115 111 96 101 75
164 207 209 188 296 303 27 41 4 11 14 248 35 158 238 216 166 177 222 164 142 134 135 148 147 148 129 141 145 137 128 118 110 100 102 107 113 112 113 117 117 103 75 64
174 147 342 293 209 179 58 83 158 161 168 260 127 211 256 231 207 196 199 164 143 142 144 143 141 138 133 131 132 125 129 127 114 109 109 103 93 103 98 81 82 71 68 73
149 126 332 315 1 186 336 55 264 183 273 62 247 292 351 87 87 150 182 150 148 152 149 151 145 146 144 145 164 154 142 134 126 123 112 101 91 78 76 82 72 63 119 90
209 114 5 285 359 292 156 187 231 335 168 272 304 299 233 145 160 148 154 157 158 153 156 159 158 159 161 162 171 170 156 132 126 115 112 112 108 90 83 106 187 126 118 85
144 127 277 12 242 251 178 241 217 163 144 187 145 291 177 168 190 165 177 173 168 165 172 163 161 168 169 173 174 129 126 127 116 111 114 116 122 130 147 180 139 151 127 106
190 129 143 235 252 219 178 198 183 123 270 184 145 265 116 183 176 175 191 178 176 169 172 167 163 159 164 146 126 130 123 116 121 122 118 133 154 190 198 163 108 111 116 114
123 209 96 229 301 312 221 242 218 186 95 216 133 259 232 156 174 187 192 183 172 168 169 164 149 144 139 129 122 114 116 121 111 130 140 148 292 133 64 71 83 96 116 143
101 256 150 190 218 240 253 223 257 182 117 214 202 259 303 249 199 188 175 167 172 174 174 158 142 134 133 134 120 119 116 126 139 125 114 161 91 93 80 59 22 350 315 243
114 174 275 292 306 323 261 249 321 297 227 149 236 218 253 272 204 198 189 163 167 160 127 134 130 128 127 121 125 126 125 131 128 125 105 92 93 75 58 35 357 323 297 261
219 220 139 301 346 10 9 309 296 296 293 319 303 260 242 158 97 89 84 166 143 139 137 138 142 140 135 135 136 134 137 122 101 88 84 79 75 57 28 352 320 317 305 297
149 134 92 245 359 4 345 238 234 245 255 238 267 265 326 71 82 106 72 74 129 149 140 143 146 140 139 138 134 133 112 102 91 87 82 65 42 19 350 314 299 295 309 348
149 129 101 180 40 30 241 267 152 161 50 41 67 68 72 84 77 70 60 118 97 108 102 99 106 101 96 99 100 105 105 106 105 97 90 80 51 289 302 327 298 310 348 349
93 112 96 137 186 288 317 90 149 145 46 39 81 89 79 58 62 29 38 67 96 102 99 102 103 103 100 101 100 94 85 93 96 84 76 48 275 320 292 283 296 286 279 303
55 74 119 100 145 206 239 146 54 52 46 19 60 64 105 66 72 304 18 68 71 82 93 96 93 90 85 79 83 79 71 71 73 130 152 242 330 267 289 291 296 259 242 253
42 17 144 129 192 288 249 144 69 98 220 54 62 60 60 90 161 165 76 64 71 79 86 88 84 84 79 76 79 77 71 60 34 274 41 293 278 282 304 40 352 328 314 295
159 138 190 113 113 278 189 87 134 204 88 94 75 94 101 109 75 78 87 84 82 83 75 78 83 83 82 75 72 70 67 250 338 4 266 265 277 275 186 323 326 343 343 305
120 172 174 169 210 228 108 123 102 90 87 46 81 57 103 129 104 103 99 92 77 79 81 83 87 85 82 91 108 185 336 355 277 283 282 286 290 280 238 218 282 333 329 309
83 143 124 93 236 122 91 83 85 85 89 80 54 46 43 86 115 112 100 86 84 84 83 87 92 96 105 126 263 154 239 254 259 261 273 273 282 286 269 214 222 236 238 264
197 119 146 171 99 83 51 56 92 84 77 76 57 52 79 99 84 93 89 94 94 92 83 77 83 76 -0 353 289 256 252 253 245 251 257 263 272 273 258 246 228 228 230 236
170 165 138 202 123 113 113 86 86 81 82 86 85 72 65 85 95 96 94 93 94 87 78 60 260 164 278 275 274 276 267 262 247 239 248 242 242 242 241 246 267 239 237 233